Regional Weather Roundup
Issued by NWS

Home | Current Version | Previous Version | Text Only | Print | Product List | Glossary Off
Versions: 1 2 3 4 5 6 7 8 9 10 11 12 13 14 15 16 17 18 19 20 21 22 23 24 25 26 27 28 29 30 31 32 33 34 35 36 37 38 39 40 41 42 43 44 45 46 47 48 49 50

000
ASUS43 KOAX 201510
RWRNE

WEATHER ROUNDUP FOR NEBRASKA
NATIONAL WEATHER SERVICE OMAHA NE
900 AM CST THU NOV 20 2014

NOTES: SATELLITE DATA IS BEING USED TO AUGMENT CLOUD COVER ABOVE
       12000 FEET.
       "FAIR" INDICATES FEW OR NO CLOUDS BELOW 12,000 FEET WITH NO
       SIGNIFICANT WEATHER AND/OR OBSTRUCTIONS TO VISIBILITY.

  * THESE STATIONS DO NOT REPORT WEATHER SUCH AS RAIN...SNOW OR FOG.

NEZ001>004-019>022-054>056-201600-
NEBRASKA PANHANDLE

CITY           SKY/WX    TMP DP  RH WIND       PRES   REMARKS
SCOTTSBLUFF    MOSUNNY   18  13  80 CALM      30.03R
ALLIANCE       MOSUNNY   17  13  84 CALM      30.01R
CHADRON        PTCLDY    11   8  88 CALM      30.02S
KIMBALL        SUNNY     25  18  74 W6        29.99R WCI  18
SIDNEY         SUNNY     25  19  78 W5        30.03R WCI  19
$$

NEZ057>060-069>072-079>082-201600-
SOUTHWEST NEBRASKA

CITY           SKY/WX    TMP DP  RH WIND       PRES   REMARKS
NORTH PLATTE   MOSUNNY   14  11  87 NW3       30.09R
IMPERIAL       MOSUNNY   22  16  78 N7        30.06R WCI  13
LEXINGTON      SUNNY     19  17  91 E3        30.11R
MCCOOK         MOSUNNY   19  14  81 N3        30.09R
OGALLALA       SUNNY     17  14  88 CALM      30.07R
$$

NEZ005>010-023>029-035>040-094-201600-
NORTH CENTRAL NEBRASKA

CITY           SKY/WX    TMP DP  RH WIND       PRES   REMARKS
VALENTINE      CLOUDY    12   9  87 SW7       30.10R WCI   1
AINSWORTH      CLOUDY    15  14  94 CALM      30.10S
BROKEN BOW     MOSUNNY   16  13  88 CALM      30.11R
O`NEILL        SUNNY     17  15  90 CALM      30.15R
ORD            MOSUNNY   15  11  83 CALM      30.15R
THEDFORD       FOG       13  11  92 CALM      30.08R VSB 1/2
$$

NEZ041-046>049-061>064-073>077-083>087-201600-
SOUTH CENTRAL NEBRASKA

CITY           SKY/WX    TMP DP  RH WIND       PRES   REMARKS
GRAND ISLAND   MOSUNNY   19  15  84 NE3       30.18R
AURORA         SUNNY     17  15  92 CALM      30.18R
HASTINGS       SUNNY     23  15  71 SE9       30.16R WCI  13
HEBRON         SUNNY     20  16  83 CALM      30.20R
HOLDREGE       MOSUNNY   21  17  84 SE8       30.13R WCI  11
KEARNEY *      MOSUNNY   19  16  86 SE9       30.15R WCI   9
YORK           SUNNY     14  12  92 N3        30.20R
$$

NEZ011>018-030>034-042>045-201600-
NORTHEAST NEBRASKA

CITY           SKY/WX    TMP DP  RH WIND       PRES   REMARKS
NORFOLK        CLOUDY    18  13  80 W5        30.18R WCI  11
ALBION         CLOUDY    14  10  85 CALM      30.18R
BLAIR          CLOUDY    18  13  81 W5        30.20R WCI  11
COLUMBUS *     CLOUDY    16   9  73 W3        30.21R
FREMONT        CLOUDY    17  14  87 NW3       30.21S
TEKAMAH        CLOUDY    19  13  77 W5        30.22R WCI  12
WAYNE          CLOUDY    22  14  72 N6        30.20R WCI  15
$$

NEZ050>053-065>068-078-088>093-201600-
SOUTHEAST NEBRASKA

CITY           SKY/WX    TMP DP  RH WIND       PRES   REMARKS
LINCOLN        SUNNY     16  11  80 CALM      30.24R
OMAHA EPPLEY   PTSUNNY   19  14  81 CALM      30.24R
BEATRICE       SUNNY     18  15  86 CALM      30.22R
FALLS CITY     SUNNY     20  17  88 MISG      30.25R
NEBRASKA CITY  SUNNY     22  15  74 CALM      30.23R
PLATTSMOUTH    SUNNY     19  13  79 W5        30.22R WCI  12
$$

NEZ044-045-051>053-067-201600-
OMAHA AREA

CITY           SKY/WX    TMP DP  RH WIND       PRES   REMARKS
OMAHA EPPLEY   PTSUNNY   19  14  81 CALM      30.24R
BLAIR          CLOUDY    18  13  81 W5        30.20R WCI  11
FREMONT        CLOUDY    17  14  87 NW3       30.21S
MILLARD        MOSUNNY   20  15  81 CALM      30.22S
OFFUTT AFB     SUNNY     19  14  81 W7        30.23R WCI  10
PLATTSMOUTH    SUNNY     19  13  79 W5        30.22R WCI  12
WAHOO          CLOUDY    16  12  86 CALM      30.22R
$$



USA.gov is the U.S. government's official web portal to all federal, state and local government web resources and services.